Location: Unspecified
(0.0000°N, 0.0000°E)
Time: 12:44:58
(UTC+00:00)

deb OV3-4 - Pass Details

Date: 19 June 2025
Orbit: 581 x 4212 km, 40.6° (Epoch: 19 July)

Event Time Altitude Azimuth Distance (km) Brightness Sun altitude
Rises 20:44:22 0° 315° (NW) 8,211 ? -36.8°
Reaches altitude 10° 20:49:48 10° 316° (NW) 7,339 ? -37.9°
Maximum altitude 21:16:15 86° 45° (NE) 3,700 ? -43.6°
Enters shadow 21:19:20 74° 122° (ESE) 3,616 ? -44.2°
